Location: Unspecified
(0.0000°N, 0.0000°E)
Time: 17:32:57
(UTC+00:00)

BEESAT - Pass Details

Date: 14 December 2017
Orbit: 701 x 709 km, 98.5° (Epoch: 20 June)

Event Time Altitude Azimuth Distance (km) Brightness Sun altitude
Rises 03:32:13 0° 181° (S) 3,094 ? -32.3°
Reaches altitude 10° 03:34:35 10° 188° (S) 2,172 ? -31.8°
Enters shadow 03:35:02 12° 191° (S) 2,008 ? -31.7°
